• In Spain
  • List of Countries
  • For 7 days
  • Water Temperature
  • Satellite Maps
  • Weather Map
  • Weather Widgets
  • user-avatar
    Login

    Hourly Weather Luanda

    Today, 23 April, Monday

    Time Temperature Precipitation Wind Pressure Humidity
    00:00 +27°C° 0.7 mm 2 mps 753 mmHg 94%
    01:00 +27°C° 0.7 mm 2 mps 753 mmHg 95%
    02:00 +27°C° 0.7 mm 2 mps 753 mmHg 95%
    03:00 +27°C° 0.7 mm 2 mps 753 mmHg 96%
    04:00 +26°C° 0.7 mm 2 mps 753 mmHg 97%
    05:00 +27°C° 0.1 mm 2 mps 753 mmHg 96%
    06:00 +27°C° 0.1 mm 2 mps 753 mmHg 96%
    07:00 +27°C° 0.1 mm 2 mps 754 mmHg 95%
    08:00 +29°C° 0.5 mm 3 mps 754 mmHg 86%
    09:00 +31°C° 0.5 mm 3 mps 754 mmHg 77%
    10:00 +34°C° 0.5 mm 3 mps 754 mmHg 68%
    11:00 +35°C° 0 mm 3 mps 754 mmHg 61%
    12:00 +37°C° 0 mm 2 mps 753 mmHg 53%
    13:00 +38°C° 0 mm 2 mps 752 mmHg 46%
    14:00 +37°C° 0 mm 2 mps 752 mmHg 50%
    15:00 +36°C° 0 mm 3 mps 751 mmHg 54%
    16:00 +35°C° 0 mm 4 mps 751 mmHg 59%
    17:00 +34°C° 0.1 mm 4 mps 751 mmHg 68%
    18:00 +32°C° 0.1 mm 4 mps 751 mmHg 77%
    19:00 +29°C° 0.1 mm 4 mps 752 mmHg 87%
    20:00 +29°C° 0 mm 3 mps 752 mmHg 88%
    21:00 +29°C° 0 mm 3 mps 753 mmHg 89%
    22:00 +28°C° 0 mm 2 mps 753 mmHg 90%
    23:00 +28°C° 0.5 mm 2 mps 753 mmHg 92%

    Tomorrow, 24 April, Tuesday

    Time Temperature Precipitation Wind Pressure Humidity
    00:00 +28°C° 0.5 mm 2 mps 753 mmHg 93%
    01:00 +27°C° 0.5 mm 2 mps 753 mmHg 94%
    02:00 +27°C° 0 mm 2 mps 753 mmHg 94%
    03:00 +27°C° 0 mm 2 mps 753 mmHg 95%
    04:00 +27°C° 0 mm 2 mps 753 mmHg 95%
    05:00 +27°C° 0 mm 2 mps 753 mmHg 94%
    06:00 +27°C° 0 mm 3 mps 753 mmHg 94%
    07:00 +27°C° 0 mm 3 mps 754 mmHg 93%
    08:00 +29°C° 0 mm 3 mps 754 mmHg 84%
    09:00 +31°C° 0 mm 3 mps 754 mmHg 74%
    10:00 +34°C° 0 mm 2 mps 755 mmHg 65%
    11:00 +35°C° 0 mm 2 mps 754 mmHg 59%
    12:00 +36°C° 0 mm 2 mps 753 mmHg 54%
    13:00 +38°C° 0 mm 2 mps 752 mmHg 48%
    14:00 +37°C° 0.3 mm 3 mps 752 mmHg 54%
    15:00 +36°C° 0.3 mm 4 mps 752 mmHg 61%
    16:00 +34°C° 0.3 mm 4 mps 751 mmHg 67%
    17:00 +33°C° 0.5 mm 4 mps 752 mmHg 74%
    18:00 +30°C° 0.5 mm 4 mps 752 mmHg 82%
    19:00 +29°C° 0.5 mm 4 mps 752 mmHg 89%
    20:00 +29°C° 0.1 mm 4 mps 753 mmHg 90%
    21:00 +29°C° 0.1 mm 4 mps 754 mmHg 91%
    22:00 +28°C° 0.1 mm 3 mps 754 mmHg 92%
    23:00 +28°C° 1.2 mm 3 mps 754 mmHg 93%

    Day after tomorrow, 25 April, Wednesday

    Time Temperature Precipitation Wind Pressure Humidity
    00:00 +28°C° 1.2 mm 3 mps 753 mmHg 94%
    01:00 +28°C° 1.2 mm 3 mps 753 mmHg 94%
    02:00 +27°C° 0.3 mm 3 mps 753 mmHg 95%
    03:00 +27°C° 0.3 mm 3 mps 753 mmHg 96%
    04:00 +27°C° 0.3 mm 3 mps 752 mmHg 97%
    05:00 +27°C° 0.3 mm 3 mps 753 mmHg 96%
    06:00 +27°C° 0.3 mm 3 mps 753 mmHg 96%
    07:00 +27°C° 0.3 mm 3 mps 754 mmHg 95%
    08:00 +29°C° 0 mm 3 mps 754 mmHg 86%
    09:00 +31°C° 0 mm 3 mps 754 mmHg 78%
    10:00 +32°C° 0 mm 2 mps 754 mmHg 69%
    11:00 +35°C° 0 mm 2 mps 754 mmHg 63%
    12:00 +36°C° 0 mm 2 mps 753 mmHg 56%
    13:00 +37°C° 0 mm 2 mps 752 mmHg 50%
    14:00 +37°C° 0.2 mm 3 mps 751 mmHg 55%
    15:00 +36°C° 0.2 mm 3 mps 751 mmHg 59%
    16:00 +35°C° 0.2 mm 3 mps 750 mmHg 63%
    17:00 +34°C° 0.1 mm 4 mps 751 mmHg 70%
    18:00 +32°C° 0.1 mm 4 mps 751 mmHg 78%
    19:00 +29°C° 0.1 mm 4 mps 752 mmHg 85%
    20:00 +29°C° 0.2 mm 3 mps 752 mmHg 87%
    21:00 +29°C° 0.2 mm 3 mps 753 mmHg 89%
    22:00 +28°C° 0.2 mm 3 mps 753 mmHg 91%
    23:00 +28°C° 1.3 mm 2 mps 753 mmHg 92%

    26 April, Thursday

    Time Temperature Precipitation Wind Pressure Humidity
    00:00 +28°C° 1.3 mm 2 mps 753 mmHg 93%
    01:00 +28°C° 1.3 mm 1 mps 753 mmHg 94%
    02:00 +27°C° 0.3 mm 1 mps 753 mmHg 94%
    03:00 +27°C° 0.3 mm 1 mps 753 mmHg 94%
    04:00 +27°C° 0.3 mm 1 mps 752 mmHg 95%
    05:00 +27°C° 0.1 mm 1 mps 753 mmHg 94%
    06:00 +27°C° 0.1 mm 1 mps 753 mmHg 94%
    07:00 +28°C° 0.1 mm 1 mps 753 mmHg 93%
    08:00 +29°C° 0 mm 1 mps 754 mmHg 85%
    09:00 +29°C° 0 mm 0 mps 754 mmHg 77%
    10:00 +31°C° 0 mm 0 mps 754 mmHg 69%
    11:00 +34°C° 0 mm 1 mps 753 mmHg 65%
    12:00 +35°C° 0 mm 1 mps 752 mmHg 60%
    13:00 +36°C° 0 mm 2 mps 751 mmHg 55%
    14:00 +36°C° 0.3 mm 2 mps 751 mmHg 60%
    15:00 +35°C° 0.3 mm 3 mps 751 mmHg 65%
    16:00 +34°C° 0.3 mm 3 mps 751 mmHg 69%
    17:00 +31°C° 0 mm 3 mps 751 mmHg 75%
    18:00 +30°C° 0 mm 3 mps 752 mmHg 81%
    19:00 +29°C° 0 mm 3 mps 752 mmHg 87%
    20:00 +28°C° 0 mm 3 mps 753 mmHg 88%
    21:00 +28°C° 0 mm 3 mps 753 mmHg 89%
    22:00 +28°C° 0 mm 2 mps 753 mmHg 89%
    23:00 +28°C° 0.6 mm 2 mps 753 mmHg 91%

    27 April, Friday

    Time Temperature Precipitation Wind Pressure Humidity
    00:00 +27°C° 0.6 mm 2 mps 753 mmHg 93%
    01:00 +27°C° 0.6 mm 2 mps 752 mmHg 94%
    02:00 +27°C° 0.1 mm 2 mps 752 mmHg 95%
    03:00 +26°C° 0.1 mm 3 mps 752 mmHg 95%
    04:00 +26°C° 0.1 mm 3 mps 752 mmHg 96%
    05:00 +26°C° 0 mm 3 mps 752 mmHg 95%
    06:00 +26°C° 0 mm 3 mps 752 mmHg 95%
    07:00 +27°C° 0 mm 3 mps 753 mmHg 94%
    08:00 +28°C° 0 mm 3 mps 753 mmHg 87%
    09:00 +30°C° 0 mm 3 mps 753 mmHg 79%
    10:00 +31°C° 0 mm 3 mps 753 mmHg 72%
    11:00 +34°C° 0 mm 3 mps 752 mmHg 65%
    12:00 +35°C° 0 mm 3 mps 752 mmHg 57%
    13:00 +37°C° 0 mm 2 mps 751 mmHg 50%
    14:00 +37°C° 0 mm 3 mps 750 mmHg 51%
    15:00 +37°C° 0 mm 3 mps 750 mmHg 52%
    16:00 +37°C° 0 mm 4 mps 750 mmHg 53%
    17:00 +35°C° 0 mm 4 mps 750 mmHg 63%
    18:00 +33°C° 0 mm 4 mps 751 mmHg 73%
    19:00 +30°C° 0 mm 4 mps 751 mmHg 84%
    20:00 +29°C° 0.1 mm 4 mps 752 mmHg 86%
    21:00 +29°C° 0.1 mm 4 mps 752 mmHg 88%
    22:00 +28°C° 0.1 mm 4 mps 752 mmHg 90%
    23:00 +28°C° 0.6 mm 4 mps 752 mmHg 91%

    28 April, Saturday

    Time Temperature Precipitation Wind Pressure Humidity
    00:00 +28°C° 0.6 mm 4 mps 752 mmHg 92%
    01:00 +27°C° 0.6 mm 4 mps 752 mmHg 93%
    02:00 +27°C° 1.3 mm 3 mps 752 mmHg 93%
    03:00 +27°C° 1.3 mm 3 mps 752 mmHg 94%
    04:00 +27°C° 1.3 mm 2 mps 752 mmHg 94%
    05:00 +27°C° 1 mm 3 mps 753 mmHg 94%
    06:00 +27°C° 1 mm 3 mps 753 mmHg 93%
    07:00 +27°C° 1 mm 3 mps 754 mmHg 92%
    08:00 +29°C° 0.5 mm 2 mps 754 mmHg 84%
    09:00 +31°C° 0.5 mm 2 mps 754 mmHg 75%
    10:00 +32°C° 0.5 mm 2 mps 754 mmHg 66%
    11:00 +35°C° 0 mm 2 mps 753 mmHg 60%
    12:00 +36°C° 0 mm 2 mps 753 mmHg 54%
    13:00 +37°C° 0 mm 1 mps 752 mmHg 48%
    14:00 +37°C° 0 mm 2 mps 751 mmHg 51%
    15:00 +36°C° 0 mm 3 mps 751 mmHg 54%
    16:00 +36°C° 0 mm 4 mps 751 mmHg 56%
    17:00 +34°C° 0 mm 4 mps 751 mmHg 65%
    18:00 +32°C° 0 mm 4 mps 752 mmHg 73%
    19:00 +30°C° 0 mm 4 mps 752 mmHg 81%
    20:00 +29°C° 0 mm 4 mps 753 mmHg 83%
    21:00 +29°C° 0 mm 4 mps 753 mmHg 84%
    22:00 +28°C° 0 mm 4 mps 753 mmHg 86%
    23:00 +28°C° 0.1 mm 3 mps 753 mmHg 88%
    Show more